BEIDOU-3 M17 (C36)

Last updated on Sat Dec 13 2025 00:03:25 GMT+0000 (Coordinated Universal Time)

1 43706U 18093A 25346.17860516 .00000078 00000+0 00000+0 0 9998 2 43706 54.1726 188.6407 0006221 307.4500 230.9206 1.86228421 48054
UTC large
Height (km)
Speed (km/s)
/
Latitude / Longitude
Inclination (degrees)
Orbital Period (minutes)
Azimuth
Elevation
Range (km)
Doppler Factor

Next 0 passes for location: London (51.5072 / 0.1276)

Sorry there are no passes over London.